Regional Weather Roundup
Issued by NWS

Home | Current Version | Previous Version | Graphics & Text | Print | Product List | Glossary On
Versions: 1 2 3 4 5 6 7 8 9 10 11 12 13 14 15 16 17 18 19 20 21 22 23 24 25 26 27 28 29 30 31 32 33 34 35 36 37 38 39 40 41 42 43 44 45 46 47 48 49 50
000
ASUS45 KBOI 101110
RWRID

IDAHO REGIONAL WEATHER ROUNDUP
NATIONAL WEATHER SERVICE BOISE ID
400 AM MST WED FEB 10 2016

NOTE: "FAIR" INDICATES FEW OR NO CLOUDS BELOW 12000 FEET
WITH NO SIGNIFICANT WEATHER AND/OR OBSTRUCTIONS TO VISIBILITY

IDZ012-014-101200-
SOUTHWEST IDAHO


CITY           SKY/WX    TMP DP  RH WIND       PRES   REMARKS
BOISE          FOG       26  25  96 CALM      30.42S VSB 1/4
CALDWELL       FOG       29  28  96 N5        30.46R VSB 1/4 WCI  24
MOUNTAIN HOME  CLOUDY    28  25  89 E7        30.41F WCI  21
$$

IDZ016-017-101200-
SOUTHCENTRAL IDAHO


CITY           SKY/WX    TMP DP  RH WIND       PRES   REMARKS
BURLEY         MOCLDY    24  22  91 N3        30.37S
JEROME         PTCLDY    23  19  85 NE16      30.38F WCI  10
TWIN FALLS     PTCLDY    24  23  96 E5        30.37F WCI  18
$$

IDZ019>023-101200-
SOUTHEAST IDAHO


CITY           SKY/WX    TMP DP  RH WIND       PRES   REMARKS
IDAHO FALLS    CLOUDY    10   6  84 N6        30.42F WCI   0
POCATELLO      CLOUDY    14  12  92 E5        30.42S WCI   6
REXBURG        CLOUDY     7   4  87 CALM      30.41S FOG
$$

IDZ006-010-011-018-031-032-101200-
CENTRAL IDAHO MOUNTAINS


CITY           SKY/WX    TMP DP  RH WIND       PRES   REMARKS
MCCALL         FOG       16  12  84 CALM      30.33F VSB 3/4
HAILEY         CLEAR     23  18  80 NW12      30.38F WCI  12
STANLEY          N/A      5   0  79 VRB3      30.40F
SALMON         CLEAR      3   0  85 CALM      30.43S
CHALLIS        CLOUDY     8   5  87 CALM      30.39F FOG
$$

IDZ002-004-006-007-026-101200-
NORTHERN IDAHO


CITY           SKY/WX    TMP DP  RH WIND       PRES   REMARKS
LEWISTON       MOCLDY    43  31  62 SE10      30.26F
LOWELL           N/A     33  31  92 CALM      30.36F
COEUR D`ALENE  PTCLDY    30  27  86 E3        30.23S
MULLAN PASS    CLEAR     37  26  64 VRB6      30.21F WCI  32
$$



USA.gov is the U.S. government's official web portal to all federal, state and local government web resources and services.